TimeEDT,TemperatureF,Dew PointF,Humidity,Sea Level PressureIn,VisibilityMPH,Wind Direction,Wind SpeedMPH,Gust SpeedMPH,PrecipitationIn,Events,Conditions,WindDirDegrees,DateUTC
12:51 AM,35.1,32.0,89,30.40,10.0,SW,4.6,-,N/A,,Clear,220,2013-04-26 04:51:00
1:51 AM,36.0,32.0,86,30.41,10.0,SW,3.5,-,N/A,,Clear,220,2013-04-26 05:51:00
2:51 AM,37.0,32.0,82,30.40,10.0,Calm,Calm,-,N/A,,Clear,0,2013-04-26 06:51:00
3:51 AM,33.1,30.9,92,30.42,10.0,Calm,Calm,-,N/A,,Clear,0,2013-04-26 07:51:00
4:51 AM,32.0,30.0,92,30.43,10.0,SSE,6.9,-,N/A,,Clear,160,2013-04-26 08:51:00
5:51 AM,30.9,28.0,89,30.45,10.0,Calm,Calm,-,N/A,,Clear,0,2013-04-26 09:51:00
6:51 AM,30.9,28.9,92,30.48,9.0,South,3.5,-,N/A,,Partly Cloudy,170,2013-04-26 10:51:00
7:51 AM,36.0,32.0,86,30.49,10.0,Calm,Calm,-,N/A,,Clear,0,2013-04-26 11:51:00
8:51 AM,43.0,35.1,74,30.50,10.0,WSW,3.5,-,N/A,,Clear,240,2013-04-26 12:51:00
9:51 AM,48.0,32.0,54,30.51,10.0,Calm,Calm,-,N/A,,Partly Cloudy,0,2013-04-26 13:51:00
10:51 AM,51.1,30.0,44,30.51,10.0,Variable,3.5,-,N/A,,Partly Cloudy,0,2013-04-26 14:51:00
11:51 AM,52.0,28.9,41,30.50,10.0,Variable,3.5,-,N/A,,Scattered Clouds,0,2013-04-26 15:51:00
12:51 PM,53.1,28.9,40,30.49,10.0,ESE,3.5,-,N/A,,Scattered Clouds,120,2013-04-26 16:51:00
1:51 PM,55.9,28.9,36,30.48,10.0,Variable,3.5,-,N/A,,Scattered Clouds,0,2013-04-26 17:51:00
2:51 PM,55.9,26.1,32,30.47,10.0,Variable,3.5,-,N/A,,Scattered Clouds,0,2013-04-26 18:51:00
3:51 PM,55.0,30.0,38,30.46,10.0,NE,8.1,-,N/A,,Scattered Clouds,40,2013-04-26 19:51:00
4:51 PM,55.0,30.0,38,30.43,10.0,North,8.1,-,N/A,,Scattered Clouds,350,2013-04-26 20:51:00
5:51 PM,54.0,32.0,43,30.43,10.0,NNE,9.2,-,N/A,,Scattered Clouds,20,2013-04-26 21:51:00
6:51 PM,52.0,28.9,41,30.43,10.0,NNE,6.9,-,N/A,,Partly Cloudy,20,2013-04-26 22:51:00
7:51 PM,50.0,28.0,43,30.41,10.0,NE,6.9,-,N/A,,Partly Cloudy,40,2013-04-26 23:51:00
8:51 PM,48.0,28.9,48,30.42,10.0,North,5.8,-,N/A,,Clear,360,2013-04-27 00:51:00
9:51 PM,48.0,30.0,50,30.43,10.0,Calm,Calm,-,N/A,,Clear,0,2013-04-27 01:51:00
10:51 PM,48.0,30.0,50,30.42,10.0,SSE,3.5,-,N/A,,Clear,150,2013-04-27 02:51:00
11:51 PM,45.0,33.1,63,30.41,10.0,SE,3.5,-,N/A,,Clear,130,2013-04-27 03:51:00